GW3513 Weather Reports


time (UTC)temp
C
wind
direction
speed
KPH
gust
KPH
rain 1hr
cm
rain 24hr
cm
rain mn
cm
humidity
%
barometer
mb
20260505124743 13 161 0.0 0.0 0.00 0.00 0.00 99 1009.5
20260505124240 13 161 0.0 0.0 0.00 0.00 0.00 99 1009.5
20260505123735 13 161 0.0 0.0 0.00 0.00 0.00 99 1009.5
20260505123232 13 161 0.0 0.0 0.00 0.00 0.00 99 1009.2
20260505122728 13 161 0.0 0.0 0.00 0.00 0.00 99 1009.2
20260505122226 13 161 0.0 0.0 0.00 0.00 0.00 99 1009.3
20260505121722 13 161 0.0 0.0 0.00 0.00 0.00 99 1009.2
20260505121219 13 161 0.0 0.0 0.00 0.00 0.00 99 1009.0
20260505120715 13 161 0.0 0.0 0.00 0.00 0.00 99 1008.7
20260505120211 13 161 0.0 0.0 0.00 0.00 0.00 99 1008.6
20260505115705 12 161 0.0 0.0 0.00 0.00 0.00 99 1008.9
20260505115203 13 161 0.0 0.0 0.00 0.00 0.00 99 1008.8
20260505114700 13 160 0.0 0.0 0.00 0.00 0.00 99 1008.7
20260505114156 13 160 0.0 0.0 0.00 0.00 0.00 99 1008.8
20260505113652 13 160 0.0 0.0 0.00 0.00 0.00 99 1008.7
20260505113149 13 160 0.0 0.0 0.00 0.00 0.00 99 1008.9
20260505112645 13 160 0.0 0.0 0.00 0.00 0.00 99 1009.1
20260505112143 13 160 0.0 0.0 0.00 0.00 0.00 99 1008.4
20260505111643 14 160 0.0 0.0 0.00 0.00 0.00 99 1008.8
20260505111139 14 160 0.0 0.0 0.00 0.00 0.00 99 1008.7
20260505110635 14 160 0.0 0.0 0.00 0.00 0.00 99 1008.4
20260505110133 14 160 0.0 0.0 0.00 0.00 0.00 99 1008.2
20260505102108 14 160 0.0 0.0 0.00 0.00 0.00 99 1008.7
20260505101607 14 160 0.0 0.0 0.00 0.00 0.00 99 1008.9
20260505101103 14 160 0.0 0.0 0.00 0.00 0.00 99 1008.8
20260505100559 14 160 0.0 0.0 0.00 0.00 0.00 99 1008.8
20260505100056 14 160 0.0 0.0 0.00 0.00 0.00 99 1008.5
20260505095552 13 160 0.0 0.0 0.00 0.00 0.00 99 1008.6
20260505095049 13 160 0.0 0.0 0.00 0.00 0.00 99 1008.4
20260505094545 13 160 0.0 0.0 0.00 0.00 0.00 99 1007.7
20260505094042 13 160 0.0 0.0 0.00 0.00 0.00 99 1007.5
20260505093538 13 160 0.0 0.0 0.00 0.00 0.00 99 1007.5
20260505093036 13 160 0.0 0.0 0.00 0.00 0.00 99 1007.5
20260505092533 13 160 0.0 0.0 0.00 0.00 0.00 99 1007.6
20260505092031 13 160 0.0 0.0 0.00 0.00 0.00 99 1006.8
20260505091528 13 160 0.0 0.0 0.00 0.00 0.00 99 1006.8
20260505091027 13 160 0.0 0.0 0.00 0.00 0.00 99 1007.1
20260505090524 13 160 0.0 0.0 0.00 0.00 0.00 99 1007.0
20260505090021 13 160 0.0 0.0 0.00 0.00 0.00 99 1006.3
20260505085519 14 160 0.0 0.0 0.00 0.00 0.00 99 1005.7
20260505085017 14 160 0.0 0.0 0.00 0.00 0.00 99 1006.1
20260505084515 15 160 0.0 0.0 0.00 0.00 0.00 99 1006.3
20260505084013 15 161 0.0 0.0 0.00 0.00 0.00 99 1006.3
20260505083510 15 161 0.0 0.0 0.00 0.00 0.00 99 1007.7
20260505083006 15 161 0.0 0.0 0.00 0.00 0.00 99 1008.1
20260505082502 15 161 0.0 0.0 0.00 0.00 0.00 99 1008.5
20260505081959 15 161 0.0 0.0 0.00 0.00 0.00 99 1008.7
20260505081455 15 161 0.0 0.0 0.00 0.00 0.00 99 1009.0
20260505080952 15 161 0.0 0.0 0.00 0.00 0.00 99 1008.7
20260505080448 15 161 0.0 0.0 0.00 0.00 0.00 99 1008.9
20260505075944 15 161 0.0 0.0 0.00 0.00 0.00 99 1009.0
20260505075441 15 161 0.0 0.0 0.00 0.00 0.00 99 1008.7
20260505074938 15 161 0.0 0.0 0.00 0.00 0.00 99 1008.6
20260505074436 15 161 0.0 0.0 0.00 0.00 0.00 99 1008.7
20260505073933 15 161 0.0 0.0 0.00 0.00 0.00 99 1008.7
20260505073430 15 161 0.0 0.0 0.00 0.00 0.00 99 1008.7
20260505072927 15 161 0.0 0.0 0.00 0.00 0.00 99 1008.7
20260505072423 15 161 0.0 0.0 0.00 0.00 0.00 99 1008.6
20260505071920 15 161 0.0 0.0 0.00 0.00 0.00 97 1008.4
20260505071416 15 161 0.0 0.0 0.00 0.00 0.00 95 1008.4
20260505070914 16 161 0.0 0.0 0.00 0.00 0.00 91 1008.7
20260505070410 17 161 0.0 0.0 0.00 0.00 0.00 85 1008.6
20260505065906 17 161 0.0 0.0 0.00 0.00 0.00 81 1008.3
20260505065403 17 161 0.0 0.0 0.00 0.00 0.00 80 1008.2
20260505064859 17 161 0.0 0.0 0.00 0.00 0.00 80 1008.1
20260505064356 17 161 0.0 0.0 0.00 0.00 0.00 78 1007.7
20260505063855 17 161 0.0 0.0 0.00 0.00 0.00 78 1008.1
20260505063355 17 161 0.0 0.0 0.00 0.00 0.00 78 1008.2
20260505062853 17 161 0.0 0.0 0.00 0.00 0.00 78 1008.4
20260505062350 17 161 0.0 0.0 0.00 0.00 0.00 78 1008.6
20260505061846 17 161 0.0 0.0 0.00 0.00 0.00 78 1008.5
20260505061345 17 161 0.0 0.0 0.00 0.00 0.00 78 1008.6
20260505060842 17 161 0.0 0.0 0.00 0.00 0.00 78 1008.6
20260505060339 17 161 0.0 0.0 0.00 0.00 0.00 78 1008.6
20260505055835 17 161 0.0 0.0 0.00 0.00 0.00 78 1008.7
20260505055331 17 161 0.0 0.0 0.00 0.00 0.00 78 1008.5
20260505054828 17 161 0.0 0.0 0.00 0.00 0.00 78 1008.7
20260505054325 17 161 0.0 0.0 0.00 0.00 0.00 78 1008.7
20260505053824 17 161 0.0 0.0 0.00 0.00 0.00 77 1008.6
20260505053320 17 161 0.0 0.0 0.00 0.00 0.00 78 1008.6
20260505052817 17 161 0.0 0.0 0.00 0.00 0.00 77 1008.7
20260505052314 17 161 0.0 0.0 0.00 0.00 0.00 77 1008.5
20260505051811 17 161 0.0 0.0 0.00 0.00 0.00 77 1008.6
20260505051309 17 161 0.0 0.0 0.00 0.00 0.00 77 1008.6
20260505050806 17 161 0.0 0.0 0.00 0.00 0.00 77 1008.9
20260505050305 17 161 0.0 0.0 0.00 0.00 0.00 77 1008.8
20260505041734 17 161 0.0 0.0 0.00 0.00 0.00 76 1009.1
20260505041231 17 161 0.0 0.0 0.00 0.00 0.00 76 1009.4
20260505040729 17 161 0.0 0.0 0.00 0.00 0.00 75 1009.2
20260505040226 17 161 0.0 0.0 0.00 0.00 0.00 75 1009.5
20260505035723 17 161 0.0 0.0 0.00 0.00 0.00 75 1009.4
20260505035219 17 161 0.0 0.0 0.00 0.00 0.00 75 1009.5
20260505034716 17 161 0.0 0.0 0.00 0.00 0.00 75 1009.7
20260505034213 17 161 0.0 0.0 0.00 0.00 0.00 75 1009.8
20260505033709 18 161 0.0 0.0 0.00 0.00 0.00 74 1009.7
20260505033207 18 161 0.0 0.0 0.00 0.00 0.00 73 1009.9
20260505032705 18 161 0.0 0.0 0.00 0.00 0.00 71 1009.7
20260505032200 19 161 0.0 0.0 0.00 0.00 0.00 70 1009.7
20260505031658 19 161 0.0 0.0 0.00 0.00 0.00 69 1009.6
20260505031154 19 161 0.0 0.0 0.00 0.00 0.00 69 1009.7
20260505030651 19 161 0.0 0.0 0.00 0.00 0.00 69 1009.8
20260505030147 19 161 0.0 0.0 0.00 0.00 0.00 70 1009.9
20260505025643 19 161 0.0 0.0 0.00 0.00 0.00 71 1009.8
20260505025142 19 161 0.0 0.0 0.00 0.00 0.00 71 1010.0
20260505024639 19 161 0.0 0.0 0.00 0.00 0.00 71 1009.8
20260505024136 19 161 0.0 0.0 0.00 0.00 0.00 72 1009.7
20260505023634 19 161 0.0 0.0 0.00 0.00 0.00 71 1009.7
20260505023131 19 161 0.0 0.0 0.00 0.00 0.00 71 1009.5
20260505022628 18 161 0.0 0.0 0.00 0.00 0.00 71 1009.6
20260505022125 19 161 0.0 0.0 0.00 0.00 0.00 72 1009.3
20260505021622 19 161 0.0 0.0 0.00 0.00 0.00 71 1009.4
20260505021119 19 161 0.0 0.0 0.00 0.00 0.00 72 1009.1
20260505020614 19 161 0.0 0.0 0.00 0.00 0.00 71 1009.0
20260505020111 19 161 0.0 0.0 0.00 0.00 0.00 71 1009.3
20260505015608 20 161 0.0 0.0 0.00 0.00 0.00 69 1009.1
20260505015104 19 161 0.0 0.0 0.00 0.00 0.00 69 1008.9
20260505014601 20 161 0.0 0.0 0.00 0.00 0.00 70 1009.1
20260505014058 20 161 0.0 0.0 0.00 0.00 0.00 68 1008.9
20260505013555 20 161 0.0 0.0 0.00 0.00 0.00 66 1008.9
20260505013053 20 161 0.0 0.0 0.00 0.00 0.00 67 1008.9
20260505012550 20 161 0.0 0.0 0.00 0.00 0.00 67 1008.6
20260505012047 20 161 0.0 0.0 0.00 0.00 0.00 65 1008.5
20260505011543 20 161 0.0 0.0 0.00 0.00 0.00 65 1008.6
20260505011041 21 161 0.0 0.0 0.00 0.00 0.00 63 1008.5
20260505010536 21 161 0.0 0.0 0.00 0.00 0.00 63 1008.5
20260505010033 21 161 0.0 0.0 0.00 0.00 0.00 62 1008.5
20260505005529 21 161 0.0 0.0 0.00 0.00 0.00 62 1008.2
20260505005027 21 161 0.0 0.0 0.00 0.00 0.00 61 1008.2
20260505004523 21 161 0.0 0.0 0.00 0.00 0.00 60 1008.2
20260505004020 21 161 0.0 0.0 0.00 0.00 0.00 61 1008.4
20260505003517 21 161 0.0 0.0 0.00 0.00 0.00 60 1008.4
20260505003015 22 161 0.0 0.0 0.00 0.00 0.00 60 1008.3
20260505002509 22 161 0.0 0.0 0.00 0.00 0.00 59 1008.3
20260505002009 22 161 0.0 0.0 0.00 0.00 0.00 57 1008.3
20260505001506 22 161 0.0 0.0 0.00 0.00 0.00 57 1007.9
20260505001003 22 161 0.0 0.0 0.00 0.00 0.00 57 1007.9
20260505000500 22 161 0.0 0.0 0.00 0.00 0.00 57 1008.1
20260504235957 23 161 0.0 0.0 0.00 0.00 0.00 55 1008.1
20260504235454 23 161 0.0 0.0 0.00 0.00 0.00 53 1008.1
20260504234950 24 161 0.0 0.0 0.00 0.00 0.00 53 1008.1
20260504234448 25 161 0.0 0.0 0.00 0.00 0.00 51 1008.1
20260504233944 25 161 0.0 0.0 0.00 0.00 0.00 51 1008.1
20260504233440 25 161 0.0 0.0 0.00 0.00 0.00 51 1007.9
20260504232937 26 161 0.0 0.0 0.00 0.00 0.00 48 1007.8
20260504232434 27 161 0.0 0.0 0.00 0.00 0.00 45 1007.8
20260504231931 27 161 0.0 0.0 0.00 0.00 0.00 49 1007.9
20260504231427 27 161 0.0 0.0 0.00 0.00 0.00 43 1007.9
20260504230924 28 161 0.0 0.0 0.00 0.00 0.00 43 1007.9
20260504230421 27 161 0.0 0.0 0.00 0.00 0.00 45 1007.8
20260504225920 27 161 0.0 0.0 0.00 0.00 0.00 46 1007.8
20260504225416 29 161 0.0 0.0 0.00 0.00 0.00 42 1008.1
20260504224914 31 161 0.0 0.0 0.00 0.00 0.00 39 1007.8
20260504224410 32 161 0.0 0.0 0.00 0.00 0.00 40 1008.1
20260504223907 31 161 0.0 0.0 0.00 0.00 0.00 42 1007.9
20260504223402 31 161 0.0 0.0 0.00 0.00 0.00 42 1007.9
20260504222859 31 161 0.0 0.0 0.00 0.00 0.00 43 1008.2
20260504222356 31 161 0.0 0.0 0.00 0.00 0.00 43 1007.8
20260504221854 31 161 0.0 0.0 0.00 0.00 0.00 41 1007.9
20260504221351 32 161 0.0 0.0 0.00 0.00 0.00 38 1007.9
20260504220848 32 161 0.0 0.0 0.00 0.00 0.00 42 1007.8
20260504220344 31 161 0.0 0.0 0.00 0.00 0.00 40 1008.1
20260504215842 31 161 0.0 0.0 0.00 0.00 0.00 43 1008.3
20260504215338 32 161 0.0 0.0 0.00 0.00 0.00 39 1008.2
20260504214834 32 161 0.0 0.0 0.00 0.00 0.00 37 1008.2
20260504214331 31 161 0.0 0.0 0.00 0.00 0.00 41 1008.2
20260504213828 31 161 0.0 0.0 0.00 0.00 0.00 43 1008.3
20260504213324 31 161 0.0 0.0 0.00 0.00 0.00 42 1008.2
20260504212821 31 161 0.0 0.0 0.00 0.00 0.00 41 1008.3
20260504212317 31 161 0.0 0.0 0.00 0.00 0.00 40 1008.5
20260504211815 30 161 0.0 0.0 0.00 0.00 0.00 43 1008.4
20260504211311 32 161 0.0 0.0 0.00 0.00 0.00 39 1008.5
20260504210809 31 161 0.0 0.0 0.00 0.00 0.00 43 1008.4
20260504210306 28 161 0.0 0.0 0.00 0.00 0.00 41 1008.5
20260504205803 28 161 0.0 0.0 0.00 0.00 0.00 44 1008.5
20260504205300 31 161 0.0 0.0 0.00 0.00 0.00 41 1008.6
20260504204758 32 161 0.0 0.0 0.00 0.00 0.00 39 1008.8
20260504204256 33 161 0.0 3.2 0.00 0.00 0.00 36 1009.0
20260504203756 32 161 0.0 0.0 0.00 0.00 0.00 37 1008.8
20260504203252 32 160 0.0 0.0 0.00 0.00 0.00 38 1008.9
20260504202747 32 160 0.0 0.0 0.00 0.00 0.00 37 1009.0
20260504202245 33 160 0.0 0.0 0.00 0.00 0.00 36 1009.0
20260504201741 32 160 0.0 0.0 0.00 0.00 0.00 40 1009.1
20260504201239 31 160 0.0 0.0 0.00 0.00 0.00 39 1009.1
20260504200737 31 160 0.0 0.0 0.00 0.00 0.00 40 1009.2
20260504200232 32 160 0.0 0.0 0.00 0.00 0.00 40 1009.2
20260504195729 31 160 0.0 0.0 0.00 0.00 0.00 41 1009.2
20260504195225 32 160 0.0 0.0 0.00 0.00 0.00 41 1009.3
20260504194722 31 160 0.0 0.0 0.00 0.00 0.00 42 1009.3
20260504194218 30 160 0.0 0.0 0.00 0.00 0.00 42 1009.5
20260504193715 32 160 0.0 0.0 0.00 0.00 0.00 35 1009.4
20260504193212 31 160 0.0 0.0 0.00 0.00 0.00 37 1009.3
20260504192710 31 160 0.0 0.0 0.00 0.00 0.00 43 1009.3
20260504192208 31 160 0.0 0.0 0.00 0.00 0.00 41 1009.3
20260504191706 30 160 0.0 0.0 0.00 0.00 0.00 44 1009.4
20260504191203 31 160 0.0 0.0 0.00 0.00 0.00 43 1009.5
20260504190658 31 160 0.0 0.0 0.00 0.00 0.00 39 1009.3
20260504190155 32 160 0.0 0.0 0.00 0.00 0.00 40 1009.6
20260504185651 31 160 0.0 0.0 0.00 0.00 0.00 43 1009.5
20260504185148 30 160 0.0 0.0 0.00 0.00 0.00 41 1009.5
20260504184644 31 160 0.0 0.0 0.00 0.00 0.00 40 1009.4
20260504184139 30 160 0.0 0.0 0.00 0.00 0.00 45 1009.4
20260504183636 30 160 0.0 0.0 0.00 0.00 0.00 42 1009.4
20260504183134 30 160 0.0 0.0 0.00 0.00 0.00 43 1009.4
20260504182632 29 160 0.0 0.0 0.00 0.00 0.00 42 1009.5
20260504182129 29 161 0.0 0.0 0.00 0.00 0.00 41 1009.4
20260504181626 30 161 0.0 0.0 0.00 0.00 0.00 42 1009.6
20260504181123 29 161 0.0 0.0 0.00 0.00 0.00 43 1009.5
20260504180623 30 161 0.0 0.0 0.00 0.00 0.00 40 1009.4
20260504180121 30 160 0.0 0.0 0.00 0.00 0.00 42 1009.6
20260504175618 29 161 0.0 0.0 0.00 0.00 0.00 45 1009.8
20260504175114 30 161 0.0 0.0 0.00 0.00 0.00 41 1009.5
20260504174613 30 161 0.0 0.0 0.00 0.00 0.00 38 1009.7
20260504174109 31 161 0.0 1.6 0.00 0.00 0.00 42 1009.6
20260504173606 29 161 0.0 0.0 0.00 0.00 0.00 42 1010.0
20260504173104 28 161 0.0 0.0 0.00 0.00 0.00 45 1010.0
20260504172559 28 161 0.0 0.0 0.00 0.00 0.00 45 1009.9
20260504172056 28 161 0.0 0.0 0.00 0.00 0.00 49 1009.8
20260504171553 28 161 0.0 0.0 0.00 0.00 0.00 46 1009.8
20260504171050 27 161 0.0 0.0 0.00 0.00 0.00 42 1009.8
20260504170545 28 160 0.0 0.0 0.00 0.00 0.00 44 1009.7
20260504150930 25 161 0.0 0.0 0.00 0.00 0.00 53 1010.8
20260504150426 24 161 0.0 0.0 0.00 0.00 0.00 47 1010.9
20260504140853 21 161 0.0 0.0 0.00 0.00 0.00 55 1011.5
20260504140349 21 161 0.0 0.0 0.00 0.00 0.00 55 1011.6
20260504130818 18 161 0.0 0.0 0.00 0.00 0.00 63 1011.5
20260504130314 18 161 0.0 0.0 0.00 0.00 0.00 62 1011.6